SHT9J EGPH-EGLL

Flight info

Callsign SHT9J
Flight time 0h 59m
Altitude 31000
Route GOSAM P600 FENIK L612 NAVSO DCT AKOMU DCT VAMEB DCT NUGRA
Aircraft A320/M-SDE3FGHIRWY/LB1

Departure

Time 2026-04-21 09:27
Airport Edinburgh Airport (EGPH)

Arrival

Time 2026-04-21 10:27
Airport London Heathrow Airport (EGLL)
Time Latitude Longitude Altitude Speed Heading
2026-04-21 09:01 55.94854 -3.36604 118 ft 0 kts 145°
2026-04-21 09:01 55.94860 -3.36611 115 ft 0 kts 145°
2026-04-21 09:16 55.94863 -3.36614 113 ft 3 kts 145°
2026-04-21 09:17 55.94884 -3.36641 113 ft 4 kts 145°
2026-04-21 09:17 55.94902 -3.36661 116 ft 4 kts 170°
2026-04-21 09:17 55.94925 -3.36653 114 ft 4 kts 225°
2026-04-21 09:17 55.94933 -3.36635 115 ft 0 kts 239°
2026-04-21 09:20 55.94932 -3.36638 116 ft 1 kts 239°
2026-04-21 09:21 55.94921 -3.36672 112 ft 5 kts 239°
2026-04-21 09:21 55.94899 -3.36743 113 ft 8 kts 254°
2026-04-21 09:21 55.94925 -3.36843 116 ft 11 kts 310°
2026-04-21 09:21 55.94902 -3.36969 116 ft 13 kts 236°
2026-04-21 09:22 55.94849 -3.37121 113 ft 15 kts 238°
2026-04-21 09:22 55.94832 -3.37171 116 ft 0 kts 239°
2026-04-21 09:24 55.94831 -3.37174 112 ft 2 kts 239°
2026-04-21 09:24 55.94810 -3.37237 113 ft 10 kts 239°
2026-04-21 09:24 55.94759 -3.37386 114 ft 16 kts 239°
2026-04-21 09:25 55.94694 -3.37579 115 ft 20 kts 239°
2026-04-21 09:25 55.94616 -3.37811 116 ft 24 kts 239°
2026-04-21 09:25 55.94525 -3.38079 115 ft 27 kts 239°
2026-04-21 09:25 55.94428 -3.38367 114 ft 25 kts 238°
2026-04-21 09:26 55.94349 -3.38596 113 ft 21 kts 238°
2026-04-21 09:26 55.94282 -3.38794 113 ft 16 kts 243°
2026-04-21 09:26 55.94315 -3.38899 114 ft 12 kts 330°
2026-04-21 09:26 55.94400 -3.38970 114 ft 14 kts
2026-04-21 09:27 55.94475 -3.38796 113 ft 33 kts 58°
2026-04-21 09:27 55.94731 -3.38037 112 ft 105 kts 59°
2026-04-21 09:27 55.95205 -3.36651 213 ft 147 kts 58°
2026-04-21 09:27 55.95752 -3.35129 931 ft 144 kts 59°
2026-04-21 09:28 55.96385 -3.33751 1654 ft 143 kts 45°
2026-04-21 09:28 55.97120 -3.32559 2282 ft 142 kts 45°
2026-04-21 09:28 55.97853 -3.31374 2911 ft 142 kts 45°
2026-04-21 09:28 55.98586 -3.30190 3474 ft 147 kts 45°
2026-04-21 09:29 55.99409 -3.28881 3789 ft 170 kts 39°
2026-04-21 09:29 56.00592 -3.28082 4085 ft 200 kts
2026-04-21 09:29 56.02045 -3.28649 4455 ft 234 kts 333°
2026-04-21 09:29 56.03194 -3.30936 4919 ft 267 kts 294°
2026-04-21 09:30 56.03446 -3.34291 5625 ft 281 kts 266°
2026-04-21 09:30 56.03128 -3.37770 5917 ft 285 kts 255°
2026-04-21 09:30 56.02570 -3.41167 5996 ft 284 kts 251°
2026-04-21 09:30 56.01946 -3.44520 6017 ft 285 kts 250°
2026-04-21 09:31 56.01332 -3.47908 6299 ft 288 kts 252°
2026-04-21 09:31 56.00760 -3.51322 7325 ft 288 kts 253°
2026-04-21 09:31 56.00217 -3.54798 8242 ft 293 kts 253°
2026-04-21 09:31 55.99689 -3.58350 9119 ft 299 kts 253°
2026-04-21 09:32 55.99165 -3.61975 9950 ft 304 kts 253°
2026-04-21 09:32 55.98639 -3.65668 10767 ft 310 kts 253°
2026-04-21 09:32 55.98085 -3.69546 11091 ft 334 kts 253°
2026-04-21 09:32 55.97492 -3.73668 11515 ft 349 kts 253°
2026-04-21 09:33 55.96881 -3.77917 12201 ft 356 kts 253°
2026-04-21 09:33 55.96265 -3.82216 12921 ft 360 kts 252°
2026-04-21 09:33 55.95634 -3.86561 13645 ft 364 kts 252°
2026-04-21 09:33 55.94992 -3.90953 14374 ft 367 kts 252°
2026-04-21 09:34 55.94344 -3.95391 15078 ft 371 kts 252°
2026-04-21 09:34 55.93450 -3.99689 15727 ft 370 kts 237°
2026-04-21 09:34 55.91920 -4.03316 16384 ft 365 kts 219°
2026-04-21 09:34 55.89876 -4.05908 17028 ft 358 kts 200°
2026-04-21 09:35 55.87536 -4.07212 17651 ft 351 kts 182°
2026-04-21 09:35 55.85105 -4.07383 18301 ft 350 kts 175°
2026-04-21 09:35 55.82658 -4.07393 18934 ft 353 kts 175°
2026-04-21 09:35 55.80194 -4.07397 19554 ft 356 kts 175°
2026-04-21 09:36 55.77703 -4.07404 20171 ft 360 kts 175°
2026-04-21 09:36 55.75183 -4.07416 20788 ft 364 kts 175°
2026-04-21 09:36 55.73499 -4.07426 21183 ft 366 kts 175°
2026-04-21 09:36 55.70937 -4.07441 21756 ft 370 kts 175°
2026-04-21 09:37 55.68354 -4.07463 22310 ft 374 kts 175°
2026-04-21 09:37 55.65740 -4.07492 22856 ft 377 kts 175°
2026-04-21 09:37 55.63107 -4.07527 23402 ft 380 kts 175°
2026-04-21 09:37 55.60452 -4.07556 23922 ft 383 kts 176°
2026-04-21 09:38 55.57769 -4.07583 24414 ft 387 kts 176°
2026-04-21 09:38 55.55068 -4.07608 24899 ft 390 kts 176°
2026-04-21 09:38 55.52351 -4.07533 25353 ft 391 kts 171°
2026-04-21 09:38 55.49672 -4.06755 25790 ft 390 kts 162°
2026-04-21 09:39 55.47110 -4.05197 26205 ft 390 kts 153°
2026-04-21 09:39 55.44711 -4.02980 26627 ft 391 kts 148°
2026-04-21 09:39 55.42321 -4.00648 27022 ft 394 kts 148°
2026-04-21 09:39 55.39906 -3.98307 27414 ft 398 kts 148°
2026-04-21 09:40 55.37475 -3.95960 27784 ft 401 kts 148°
2026-04-21 09:40 55.35017 -3.93591 28147 ft 405 kts 149°
2026-04-21 09:40 55.32537 -3.91201 28516 ft 408 kts 149°
2026-04-21 09:40 55.30038 -3.88795 28876 ft 411 kts 149°
2026-04-21 09:41 55.27519 -3.86375 29225 ft 415 kts 149°
2026-04-21 09:41 55.24980 -3.83940 29554 ft 418 kts 149°
2026-04-21 09:41 55.22449 -3.81516 29873 ft 422 kts 149°
2026-04-21 09:41 55.19839 -3.79107 30201 ft 426 kts 151°
2026-04-21 09:42 55.17179 -3.76780 30511 ft 430 kts 152°
2026-04-21 09:42 55.14477 -3.74493 30817 ft 433 kts 153°
2026-04-21 09:42 55.11750 -3.72216 31097 ft 437 kts 153°
2026-04-21 09:42 55.08997 -3.69910 31380 ft 440 kts 153°
2026-04-21 09:43 55.06234 -3.67576 31499 ft 439 kts 153°
2026-04-21 09:43 55.03534 -3.65281 31521 ft 427 kts 153°
2026-04-21 09:43 54.98251 -3.60764 31523 ft 421 kts 153°
2026-04-21 09:44 54.92988 -3.56259 31511 ft 422 kts 153°
2026-04-21 09:44 54.87711 -3.51782 31495 ft 422 kts 153°
2026-04-21 09:45 54.82418 -3.47316 31495 ft 423 kts 153°
2026-04-21 09:45 54.77112 -3.42852 31492 ft 424 kts 154°
2026-04-21 09:46 54.71802 -3.38388 31488 ft 424 kts 154°
2026-04-21 09:46 54.66486 -3.33926 31487 ft 425 kts 154°
2026-04-21 09:47 54.61156 -3.29472 31488 ft 426 kts 154°
2026-04-21 09:47 54.55811 -3.25019 31484 ft 427 kts 154°
2026-04-21 09:48 54.50467 -3.20566 31482 ft 427 kts 154°
2026-04-21 09:48 54.45124 -3.16128 31480 ft 426 kts 154°
2026-04-21 09:49 54.39817 -3.11754 31476 ft 426 kts 154°
2026-04-21 09:49 54.34465 -3.07355 31479 ft 427 kts 154°
2026-04-21 09:50 54.29977 -3.03673 31477 ft 427 kts 154°
2026-04-21 09:50 54.23749 -2.98565 31472 ft 427 kts 154°
2026-04-21 09:51 54.18392 -2.94201 31466 ft 427 kts 154°
2026-04-21 09:51 54.12997 -2.89972 31462 ft 427 kts 156°
2026-04-21 09:52 54.07526 -2.86044 31456 ft 426 kts 157°
2026-04-21 09:52 54.02009 -2.82136 31454 ft 426 kts 157°
2026-04-21 09:53 53.96409 -2.78839 31442 ft 427 kts 163°
2026-04-21 09:53 53.90711 -2.75811 31415 ft 430 kts 163°
2026-04-21 09:54 53.84983 -2.72792 31423 ft 431 kts 164°
2026-04-21 09:54 53.79250 -2.69769 31426 ft 432 kts 163°
2026-04-21 09:55 53.73503 -2.66749 31428 ft 433 kts 163°
2026-04-21 09:55 53.67754 -2.63735 31434 ft 433 kts 163°
2026-04-21 09:56 53.62037 -2.60747 31432 ft 433 kts 164°
2026-04-21 09:56 53.56278 -2.57740 31442 ft 434 kts 164°
2026-04-21 09:57 53.50507 -2.54755 31436 ft 434 kts 164°
2026-04-21 09:57 53.44728 -2.51766 31439 ft 435 kts 164°
2026-04-21 09:58 53.38946 -2.48770 31436 ft 435 kts 164°
2026-04-21 09:58 53.33155 -2.45790 31438 ft 436 kts 164°
2026-04-21 09:59 53.27350 -2.42807 31434 ft 436 kts 165°
2026-04-21 09:59 53.21542 -2.39834 31432 ft 437 kts 165°
2026-04-21 10:00 53.15724 -2.36869 31415 ft 438 kts 165°
2026-04-21 10:00 53.09912 -2.33911 31428 ft 429 kts 165°
2026-04-21 10:01 53.07104 -2.32480 31425 ft 414 kts 165°
2026-04-21 10:01 53.04409 -2.31045 31420 ft 402 kts 161°
2026-04-21 10:01 52.99599 -2.26820 31410 ft 381 kts 149°
2026-04-21 10:02 52.95261 -2.22251 31401 ft 362 kts 150°
2026-04-21 10:02 52.93079 -2.19979 31212 ft 382 kts 150°
2026-04-21 10:02 52.90755 -2.17568 30966 ft 406 kts 150°
2026-04-21 10:03 52.88298 -2.15019 30720 ft 428 kts 150°
2026-04-21 10:03 52.85734 -2.12352 30471 ft 441 kts 150°
2026-04-21 10:03 52.83124 -2.09624 30213 ft 445 kts 150°
2026-04-21 10:03 52.80536 -2.06917 29964 ft 446 kts 150°
2026-04-21 10:04 52.77882 -2.04146 29710 ft 446 kts 150°
2026-04-21 10:04 52.75259 -2.01415 29459 ft 445 kts 150°
2026-04-21 10:04 52.72644 -1.98702 29205 ft 443 kts 150°
2026-04-21 10:04 52.70032 -1.96006 28962 ft 442 kts 150°
2026-04-21 10:05 52.67428 -1.93326 28719 ft 441 kts 150°
2026-04-21 10:05 52.64828 -1.90650 28459 ft 440 kts 150°
2026-04-21 10:05 52.62237 -1.87980 28208 ft 439 kts 150°
2026-04-21 10:05 52.59654 -1.85314 27958 ft 438 kts 150°
2026-04-21 10:06 52.57081 -1.82664 27576 ft 435 kts 150°
2026-04-21 10:06 52.54519 -1.80035 27045 ft 434 kts 150°
2026-04-21 10:06 52.51962 -1.77417 26549 ft 432 kts 150°
2026-04-21 10:06 52.49422 -1.74821 26049 ft 430 kts 150°
2026-04-21 10:07 52.46891 -1.72237 25578 ft 427 kts 150°
2026-04-21 10:07 52.44375 -1.69666 25100 ft 425 kts 149°
2026-04-21 10:07 52.41868 -1.67105 24620 ft 423 kts 149°
2026-04-21 10:07 52.39376 -1.64566 24143 ft 421 kts 149°
2026-04-21 10:08 52.36890 -1.62042 23645 ft 420 kts 149°
2026-04-21 10:08 52.34414 -1.59531 23144 ft 418 kts 149°
2026-04-21 10:08 52.31948 -1.57029 22631 ft 417 kts 149°
2026-04-21 10:08 52.29488 -1.54535 22167 ft 414 kts 149°
2026-04-21 10:09 52.27084 -1.52101 21643 ft 413 kts 149°
2026-04-21 10:09 52.24649 -1.49643 21053 ft 399 kts 148°
2026-04-21 10:09 52.22335 -1.47303 20503 ft 384 kts 146°
2026-04-21 10:09 52.20299 -1.44732 20073 ft 368 kts 138°
2026-04-21 10:10 52.18363 -1.42010 19722 ft 368 kts 139°
2026-04-21 10:10 52.16426 -1.39301 19342 ft 364 kts 139°
2026-04-21 10:10 52.14512 -1.36634 18962 ft 360 kts 138°
2026-04-21 10:10 52.12619 -1.34001 18597 ft 356 kts 138°
2026-04-21 10:11 52.10744 -1.31396 18234 ft 353 kts 138°
2026-04-21 10:11 52.08887 -1.28818 17876 ft 350 kts 138°
2026-04-21 10:11 52.07044 -1.26258 17521 ft 347 kts 138°
2026-04-21 10:11 52.05220 -1.23724 17165 ft 344 kts 138°
2026-04-21 10:12 52.03405 -1.21209 16804 ft 341 kts 138°
2026-04-21 10:12 52.01605 -1.18723 16444 ft 339 kts 138°
2026-04-21 10:12 51.99818 -1.16258 16107 ft 336 kts 137°
2026-04-21 10:12 51.98041 -1.13808 15763 ft 335 kts 138°
2026-04-21 10:13 51.96267 -1.11360 15425 ft 335 kts 138°
2026-04-21 10:13 51.94495 -1.08911 15323 ft 334 kts 138°
2026-04-21 10:13 51.92768 -1.06530 15333 ft 318 kts 138°
2026-04-21 10:13 51.91105 -1.04244 15167 ft 309 kts 138°
2026-04-21 10:14 51.89511 -1.02061 15026 ft 291 kts 138°
2026-04-21 10:14 51.87994 -0.99981 14666 ft 281 kts 137°
2026-04-21 10:14 51.86516 -0.97943 14178 ft 277 kts 137°
2026-04-21 10:14 51.85215 -0.95712 13682 ft 270 kts 122°
2026-04-21 10:15 51.84323 -0.93094 13166 ft 264 kts 114°
2026-04-21 10:15 51.83522 -0.90430 12652 ft 262 kts 114°
2026-04-21 10:15 51.82709 -0.87801 12034 ft 263 kts 118°
2026-04-21 10:15 51.81414 -0.85603 11064 ft 282 kts 146°
2026-04-21 10:16 51.79536 -0.84594 10453 ft 285 kts 172°
2026-04-21 10:16 51.77626 -0.84448 10319 ft 266 kts 175°
2026-04-21 10:16 51.75816 -0.84408 9981 ft 257 kts 176°
2026-04-21 10:16 51.74043 -0.84392 9537 ft 253 kts 176°
2026-04-21 10:17 51.72285 -0.84393 9067 ft 251 kts 175°
2026-04-21 10:17 51.70544 -0.84412 8586 ft 249 kts 176°
2026-04-21 10:17 51.68830 -0.84441 8342 ft 246 kts 176°
2026-04-21 10:17 51.67118 -0.84472 8103 ft 245 kts 176°
2026-04-21 10:18 51.65415 -0.84506 7594 ft 245 kts 176°
2026-04-21 10:18 51.63719 -0.84542 7111 ft 243 kts 175°
2026-04-21 10:18 51.62034 -0.84587 6628 ft 241 kts 176°
2026-04-21 10:18 51.60365 -0.84637 6122 ft 239 kts 176°
2026-04-21 10:19 51.58708 -0.84688 5634 ft 238 kts 176°
2026-04-21 10:19 51.57063 -0.84735 5162 ft 236 kts 176°
2026-04-21 10:19 51.55420 -0.84786 4682 ft 237 kts 176°
2026-04-21 10:19 51.53783 -0.84837 4210 ft 234 kts 176°
2026-04-21 10:20 51.52183 -0.84891 4002 ft 222 kts 176°
2026-04-21 10:20 51.50718 -0.84953 3991 ft 201 kts 176°
2026-04-21 10:20 51.49343 -0.85001 3992 ft 195 kts 169°
2026-04-21 10:20 51.48160 -0.84273 3937 ft 176 kts 133°
2026-04-21 10:21 51.47572 -0.82687 3582 ft 164 kts 91°
2026-04-21 10:21 51.47585 -0.80859 3249 ft 166 kts 87°
2026-04-21 10:21 51.47591 -0.79006 3077 ft 166 kts 87°
2026-04-21 10:21 51.47599 -0.77162 3006 ft 166 kts 86°
2026-04-21 10:22 51.47609 -0.75321 2992 ft 162 kts 86°
2026-04-21 10:22 51.47618 -0.73584 2991 ft 152 kts 86°
2026-04-21 10:22 51.47629 -0.71924 2877 ft 147 kts 86°
2026-04-21 10:22 51.47636 -0.70840 2782 ft 146 kts 86°
2026-04-21 10:23 51.47646 -0.69187 2601 ft 149 kts 86°
2026-04-21 10:23 51.47659 -0.66978 2337 ft 148 kts 87°
2026-04-21 10:23 51.47669 -0.65326 2140 ft 148 kts 86°
2026-04-21 10:23 51.47677 -0.63667 1948 ft 149 kts 87°
2026-04-21 10:24 51.47682 -0.62549 1804 ft 149 kts 87°
2026-04-21 10:24 51.47693 -0.60343 1541 ft 150 kts 87°
2026-04-21 10:24 51.47699 -0.59208 1423 ft 151 kts 87°
2026-04-21 10:24 51.47710 -0.57524 1198 ft 151 kts 86°
2026-04-21 10:25 51.47739 -0.55844 1023 ft 149 kts 87°
2026-04-21 10:25 51.47746 -0.54252 814 ft 138 kts 88°
2026-04-21 10:25 51.47735 -0.52740 588 ft 132 kts 88°
2026-04-21 10:25 51.47739 -0.51282 455 ft 130 kts 88°
2026-04-21 10:26 51.47745 -0.49835 290 ft 130 kts 87°
2026-04-21 10:26 51.47752 -0.48383 127 ft 130 kts 88°
2026-04-21 10:26 51.47758 -0.47015 91 ft 106 kts 90°
2026-04-21 10:26 51.47760 -0.46115 86 ft 56 kts 89°
2026-04-21 10:27 51.47761 -0.45603 86 ft 32 kts 90°
2026-04-21 10:27 51.47695 -0.45465 89 ft 18 kts 179°
2026-04-21 10:27 51.47601 -0.45503 89 ft 12 kts 252°
2026-04-21 10:27 51.47597 -0.45650 88 ft 15 kts 267°
2026-04-21 10:28 51.47595 -0.45838 87 ft 19 kts 270°
2026-04-21 10:28 51.47595 -0.46066 87 ft 22 kts 270°
2026-04-21 10:28 51.47594 -0.46315 86 ft 18 kts 269°
2026-04-21 10:28 51.47593 -0.46486 88 ft 16 kts 269°
2026-04-21 10:29 51.47592 -0.46686 86 ft 20 kts 270°
2026-04-21 10:29 51.47585 -0.46870 86 ft 13 kts 262°
2026-04-21 10:29 51.47582 -0.47031 86 ft 16 kts 269°
2026-04-21 10:29 51.47582 -0.47232 88 ft 20 kts 270°
2026-04-21 10:30 51.47584 -0.47476 86 ft 24 kts 269°
2026-04-21 10:30 51.47580 -0.47758 87 ft 24 kts 270°
2026-04-21 10:30 51.47579 -0.48002 90 ft 22 kts 269°
2026-04-21 10:30 51.47578 -0.48235 90 ft 17 kts 270°
2026-04-21 10:31 51.47578 -0.48388 88 ft 10 kts 270°
2026-04-21 10:31 51.47557 -0.48480 88 ft 10 kts 200°
2026-04-21 10:31 51.47474 -0.48475 86 ft 14 kts 179°
2026-04-21 10:31 51.47401 -0.48491 89 ft 6 kts 236°
2026-04-21 10:32 51.47399 -0.48557 86 ft 1 kts 271°
2026-04-21 10:32 51.47400 -0.48575 86 ft 2 kts 270°
2026-04-21 10:32 51.47400 -0.48586 90 ft 0 kts 270°